[[{"header":{"parameterUnit":"m.s-1","parameterCategory":1,"la1":30.2991,"la2":30.254,"lo1":-89.0895,"lo2":-89.0444,"dy":0.0017,"dx":0.0017,"nx":28,"ny":28,"refTime":"2025-08-07T21:00:00:Z","depth":0,"parameterNumber":2,"parameterNumberName":"U-component_of_WINDS"},"data":[0,0,0,0,0,0,0,0,0,0,0,0,0,0,0,0,0,0,0,0,0,0,0,0,0,0,0,0,0,0,0,0,0,0,0,0,0,0,0,0,0,0,0,0,0,0,0,0,0,0,0,0,0,0,0,0,0,0,-2.8682,-2.8681,0,-2.8624,-2.8623,-2.8622,-2.8519,-2.8517,-2.8515,-2.8513,-2.8456,-2.8457,-2.8457,0,0,0,0,0,0,0,0,0,0,0,0,0,-2.8709,-2.8709,-2.8682,-2.8681,-2.868,-2.8624,-2.8623,-2.8622,-2.8519,-2.8517,-2.8514,-2.8512,-2.8456,-2.8457,-2.8457,0,0,0,0,0,0,0,0,0,0,0,0,0,-2.8679,-2.8709,-2.8682,-2.8622,-2.8616,-2.8624,-2.8623,-2.8622,-2.852,-2.8517,-2.8514,-2.8511,-2.8456,-2.8457,-2.8457,-2.8519,0,0,-2.8459,-2.8459,0,0,0,0,0,0,0,0,-2.8681,-2.8678,-2.8632,-2.8626,-2.862,-2.8575,-2.8611,-2.8588,-2.852,-2.8556,-2.8513,-2.851,-2.8499,-2.8495,-2.8491,-2.8517,-2.8514,-2.8459,-2.8459,-2.8459,-2.8459,0,0,0,0,0,0,0,-2.8683,-2.868,-2.8659,-2.8631,-2.8624,-2.86,-2.8592,-2.8607,-2.8545,-2.8553,-2.8545,-2.854,-2.8495,-2.8491,-2.8489,-2.8513,-2.8459,-2.8459,-2.8459,-2.846,-2.859,-2.8593,0,0,0,0,0,0,-2.8693,-2.8682,-2.8661,-2.8657,-2.8643,-2.8602,-2.8593,-2.8593,-2.8544,-2.8534,-2.8542,-2.8535,-2.8491,-2.8489,-2.8487,-2.8557,-2.8459,-2.846,-2.846,-2.8587,-2.859,-2.8594,0,0,0,0,0,0,-2.8694,-2.8692,-2.8663,-2.8668,-2.8662,-2.8604,-2.8605,-2.8593,-2.8589,-2.8536,-2.8525,-2.8549,-2.8489,-2.8486,-2.8512,-2.8554,-2.846,-2.846,-2.8583,-2.8588,-2.8592,-2.8698,0,0,0,0,0,0,-2.8695,-2.8693,-2.8715,-2.8669,-2.8662,-2.8688,-2.8607,-2.8594,-2.859,-2.858,-2.854,-2.853,-2.8486,-2.8512,-2.8513,-2.8553,-2.8461,-2.8579,-2.8585,-2.8591,-2.8691,-2.8706,-2.8719,0,0,0,0,0,-2.8697,-2.8747,-2.8716,-2.8714,-2.8688,-2.8691,-2.8687,-2.8634,-2.8593,-2.8615,-2.8582,-2.8532,-2.855,-2.8516,-2.8516,-2.8556,-2.8576,-2.8583,-2.859,-2.8684,-2.8703,-2.8719,0,0,0,0,0,0,-2.8799,-2.874,-2.8705,-2.8742,-2.8722,-2.8673,-2.8699,-2.8656,-2.8648,-2.8639,-2.8575,-2.8567,-2.8603,-2.8582,-2.8546,-2.8615,-2.8555,-2.8563,-2.8627,-2.8644,-2.8658,-2.8662,-2.8461,0,0,0,0,0,-2.8826,-2.8833,-2.8781,-2.8818,-2.881,-2.8757,-2.8756,-2.8718,-2.8695,-2.8687,-2.8655,-2.8636,-2.8638,-2.864,-2.8638,-2.8688,-2.8679,-2.8716,-2.8731,-2.8742,-2.8749,-2.8776,-2.8793,-2.8617,-2.8617,-2.8617,0,0,-2.8882,-2.885,-2.8858,-2.8838,-2.8818,-2.8828,-2.875,-2.8763,-2.877,-2.8689,-2.8711,-2.8689,-2.8664,-2.8703,-2.8718,-2.8687,-2.8796,-2.8752,-2.8761,-2.8762,-2.8785,-2.8802,-2.8817,-2.8622,-2.8621,-2.862,0,0,-2.8988,-2.8964,-2.8993,-2.8976,-2.8947,-2.8912,-2.8919,-2.8878,-2.8859,-2.8881,-2.8821,-2.8829,-2.8833,-2.8818,-2.8811,-2.8916,-2.8869,-2.8917,-2.899,-2.9017,-2.9031,-2.9043,-2.9081,-2.9095,-2.8924,-2.8925,-2.8925,0,-2.906,-2.907,-2.9014,-2.9031,-2.9025,-2.8952,-2.8983,-2.8969,-2.8942,-2.894,-2.8905,-2.891,-2.8888,-2.8923,-2.8949,-2.8945,-2.8953,-2.892,-2.9034,-2.9045,-2.9055,-2.9091,-2.9105,-2.8931,-2.893,-2.8929,-2.8929,0,-2.9162,-2.9171,-2.9198,-2.9173,-2.9171,-2.9195,-2.9144,-2.9148,-2.9111,-2.9081,-2.9106,-2.9077,-2.9069,-2.9075,-2.9039,-2.9107,-2.9088,-2.9045,-2.8983,-2.9079,-2.9111,-2.9124,-2.8939,-2.8937,-2.8935,-2.8934,0,0,-2.9327,-2.9274,-2.9284,-2.9273,-2.9238,-2.9244,-2.9267,-2.9259,-2.9264,-2.925,-2.9267,-2.9274,-2.9234,-2.9226,-2.9188,-2.9212,-2.9299,-2.9166,-2.9164,-2.9192,-2.9373,-2.9405,-2.9422,-2.9269,-2.9271,-2.9273,-2.9375,0,-2.9425,-2.9458,-2.9409,-2.9454,-2.9462,-2.9396,-2.9415,-2.9397,-2.937,-2.9375,-2.9345,-2.9351,-2.9298,-2.9293,-2.9314,-2.9284,-2.9334,-2.9276,-2.9285,-2.9287,-2.9293,-2.9438,-2.9472,-2.9569,-2.9387,-2.9389,-2.9391,0,-2.9543,-2.9533,-2.9579,-2.9543,-2.9545,-2.9563,-2.9553,-2.9558,-2.9537,-2.9516,-2.951,-2.9465,-2.9487,-2.9429,-2.9458,-2.942,-2.9421,-2.9408,-2.941,-2.9408,-2.9343,-2.944,-2.9599,-2.9613,-2.941,-2.9408,-2.9407,0,-2.9659,-2.9659,-2.9686,-2.9679,-2.9637,-2.9652,-2.9636,-2.9612,-2.9612,-2.9604,-2.9603,-2.9599,-2.9596,-2.9595,-2.9552,-2.9513,-2.9587,-2.9525,-2.9571,-2.9573,-2.9589,-2.9588,-2.975,-2.9592,-2.9591,-2.9591,-2.9591,0,-2.9773,-2.9803,-2.9738,-2.9755,-2.9788,-2.9733,-2.9768,-2.9746,-2.9726,-2.9739,-2.9682,-2.9695,-2.9637,-2.9646,-2.9612,-2.9643,-2.9642,-2.9627,-2.9618,-2.9631,-2.9634,-2.9631,-2.9623,-2.9595,-2.9594,-2.9593,-2.9593,0,-2.9908,-2.9865,-2.989,-2.985,-2.9841,-2.9868,-2.9834,-2.9849,-2.982,-2.9837,-2.9838,-2.9792,-2.9799,-2.9756,-2.9756,-2.9733,-2.978,-2.976,-2.9787,-2.978,-2.9829,-2.9825,-2.9994,-3.0014,-2.9844,-2.9846,-2.9847,0,-2.9982,-3.0004,-2.9967,-2.9971,-2.9958,-2.9965,-2.9965,-2.9914,-2.9915,-2.9896,-2.9914,-2.9916,-2.9915,-2.993,-2.9897,-2.9897,-2.9876,-2.9935,-2.9875,-2.989,-2.9877,-2.9876,-2.9878,-2.9947,-2.9949,-2.9951,-2.9953,0,-3.0119,-3.0098,-3.0098,-3.0093,-3.0093,-3.0087,-3.0076,-3.0083,-3.0028,-3.0034,-3.004,-3.0039,-3.0039,-3.0043,-3.0037,-3.0022,-2.9979,-2.9972,-2.9983,-2.9997,-3.0012,-3.0005,-2.982,-2.9968,-2.9966,-2.9965,-2.9964,-2.9964,-3.0226,-3.0243,-3.022,-3.0223,-3.0211,-3.0203,-3.0215,-3.0189,-3.0193,-3.0188,-3.0158,-3.0171,-3.0153,-3.014,-3.013,-3.014,-3.0112,-3.0128,-3.0131,-3.0136,-3.0145,-3.0011,-3.0139,-3.0139,-3.0138,-3.0138,-3.0137,0,-3.036,-3.0343,-3.0347,-3.0334,-3.0338,-3.0297,-3.0284,-3.029,-3.0301,-3.0288,-3.0289,-3.0297,-3.0302,-3.0271,-3.0272,-3.0286,-3.0267,-3.0288,-3.0286,-3.0284,-3.017,-3.016,-3.0304,-3.0304,-3.0304,-3.0304,-3.0304,-3.0304,-3.043,-3.0457,-3.0434,-3.0456,-3.0438,-3.0449,-3.0446,-3.044,-3.0429,-3.0441,-3.0444,-3.0424,-3.0404,-3.0404,-3.0407,-3.0398,-3.0401,-3.0429,-3.0414,-3.0307,-3.0291,-3.0276,-3.0267,-3.043,-3.043,-3.0526,-3.0527,-3.0528]},{"header":{"parameterUnit":"m.s-1","parameterCategory":1,"la1":30.2991,"la2":30.254,"lo1":-89.0895,"lo2":-89.0444,"dy":0.0017,"dx":0.0017,"nx":28,"ny":28,"refTime":"2025-08-07T21:00:00:Z","depth":0,"parameterNumber":3,"parameterNumberName":"V-component_of_WINDS"},"data":[0,0,0,0,0,0,0,0,0,0,0,0,0,0,0,0,0,0,0,0,0,0,0,0,0,0,0,0,0,0,0,0,0,0,0,0,0,0,0,0,0,0,0,0,0,0,0,0,0,0,0,0,0,0,0,0,0,0,2.2964,2.2965,0,2.301,2.3011,2.3011,2.3089,2.3091,2.3092,2.3094,2.3137,2.3136,2.3136,0,0,0,0,0,0,0,0,0,0,0,0,0,2.2941,2.2941,2.2964,2.2965,2.2965,2.301,2.3011,2.3011,2.3089,2.3091,2.3093,2.3094,2.3137,2.3136,2.3136,0,0,0,0,0,0,0,0,0,0,0,0,0,2.2965,2.2941,2.2964,2.301,2.3014,2.301,2.3011,2.3011,2.3089,2.3091,2.3093,2.3095,2.3137,2.3136,2.3136,2.309,0,0,2.3135,2.3135,0,0,0,0,0,0,0,0,2.2964,2.2966,2.3002,2.3006,2.3012,2.3046,2.3018,2.3037,2.3088,2.306,2.3094,2.3096,2.3104,2.3107,2.3111,2.3092,2.3093,2.3135,2.3135,2.3135,2.3134,0,0,0,0,0,0,0,2.2962,2.2964,2.2982,2.3003,2.3008,2.3027,2.3033,2.3022,2.3069,2.3063,2.3069,2.3073,2.3107,2.3111,2.3112,2.3094,2.3135,2.3135,2.3134,2.3134,2.304,2.3037,0,0,0,0,0,0,2.2954,2.2962,2.2981,2.2984,2.2993,2.3025,2.3032,2.3033,2.307,2.3077,2.3071,2.3077,2.311,2.3112,2.3114,2.3062,2.3135,2.3134,2.3134,2.3042,2.3039,2.3037,0,0,0,0,0,0,2.2953,2.2955,2.2979,2.2975,2.2979,2.3023,2.3024,2.3033,2.3036,2.3076,2.3084,2.3066,2.3112,2.3114,2.3095,2.3064,2.3134,2.3134,2.3045,2.3041,2.3038,2.2957,0,0,0,0,0,0,2.2952,2.2954,2.2937,2.2974,2.2979,2.296,2.3022,2.3032,2.3036,2.3043,2.3074,2.3081,2.3114,2.3095,2.3095,2.3065,2.3133,2.3047,2.3043,2.3039,2.2962,2.2951,2.2941,0,0,0,0,0,2.2951,2.2912,2.2936,2.2938,2.2959,2.2958,2.2961,2.3001,2.3033,2.3016,2.3042,2.308,2.3068,2.3093,2.3093,2.3062,2.305,2.3044,2.3039,2.2967,2.2953,2.2942,0,0,0,0,0,0,2.2869,2.2917,2.2945,2.2917,2.2933,2.2971,2.2951,2.2985,2.2992,2.2999,2.3047,2.3053,2.3028,2.3044,2.307,2.302,2.3065,2.3059,2.301,2.2997,2.2987,2.2982,2.3133,0,0,0,0,0,2.2848,2.2844,2.2886,2.2857,2.2864,2.2906,2.2907,2.2937,2.2955,2.2962,2.2987,2.3002,2.3002,2.3001,2.3003,2.2966,2.2973,2.2945,2.2934,2.2925,2.2919,2.2901,2.2888,2.3019,2.302,2.302,0,0,2.2804,2.283,2.2824,2.2841,2.2858,2.2851,2.2911,2.2902,2.2898,2.2961,2.2944,2.2963,2.2983,2.2955,2.2943,2.2967,2.2885,2.2919,2.2911,2.291,2.2894,2.2882,2.287,2.3016,2.3017,2.3017,0,0,2.272,2.2739,2.2717,2.2733,2.2757,2.2786,2.2781,2.2815,2.283,2.2815,2.2861,2.2857,2.2856,2.2868,2.2874,2.2797,2.2831,2.2796,2.274,2.2721,2.271,2.2701,2.2673,2.2662,2.279,2.279,2.279,0,2.2661,2.2655,2.2701,2.269,2.2696,2.2754,2.2732,2.2744,2.2767,2.2769,2.2796,2.2796,2.2814,2.2789,2.2771,2.2774,2.2768,2.2792,2.2708,2.27,2.2692,2.2665,2.2654,2.2786,2.2786,2.2787,2.2787,0,2.2581,2.2576,2.2555,2.2578,2.2582,2.2564,2.2607,2.2606,2.2636,2.2661,2.2645,2.2668,2.2676,2.2673,2.2702,2.2652,2.2666,2.27,2.2746,2.2674,2.265,2.264,2.2779,2.2781,2.2782,2.2783,0,0,2.2445,2.2495,2.2486,2.2497,2.2529,2.2526,2.2511,2.2521,2.2517,2.2532,2.252,2.2519,2.255,2.2557,2.2588,2.2572,2.2507,2.2608,2.2609,2.2587,2.2453,2.2427,2.2414,2.2532,2.253,2.2528,2.2451,0,2.2366,2.2345,2.2387,2.2355,2.2351,2.2407,2.2395,2.2412,2.2436,2.2435,2.2461,2.2459,2.2501,2.2506,2.2492,2.2518,2.2481,2.2525,2.2519,2.2518,2.2511,2.2401,2.2373,2.2299,2.2442,2.2441,2.244,0,2.2271,2.2283,2.2251,2.2285,2.2285,2.2273,2.2285,2.2284,2.2305,2.2323,2.2332,2.2369,2.2356,2.2402,2.2384,2.2413,2.2413,2.2426,2.2424,2.2423,2.2473,2.2397,2.2277,2.2265,2.2425,2.2426,2.2427,0,2.2173,2.2181,2.2163,2.2171,2.2211,2.2201,2.2217,2.2241,2.2244,2.2254,2.2256,2.2265,2.2269,2.2274,2.2311,2.2342,2.2289,2.2338,2.2302,2.2301,2.2287,2.2287,2.2164,2.229,2.229,2.229,2.229,0,2.2081,2.2058,2.212,2.2108,2.2085,2.2134,2.2109,2.2131,2.2151,2.2144,2.2194,2.2186,2.2237,2.2234,2.2264,2.2244,2.2246,2.2259,2.2267,2.2254,2.2252,2.2254,2.2259,2.2287,2.2288,2.2288,2.2289,0,2.1966,2.2007,2.1991,2.2031,2.204,2.2021,2.2055,2.2046,2.2074,2.2064,2.2065,2.2107,2.2107,2.2146,2.2153,2.2173,2.214,2.2158,2.2133,2.2138,2.21,2.2102,2.1972,2.1957,2.2093,2.2092,2.2091,0,2.1904,2.1888,2.1927,2.1927,2.1941,2.194,2.1944,2.1991,2.1993,2.2017,2.2004,2.2008,2.2014,2.2011,2.2041,2.2047,2.2064,2.2019,2.2065,2.2053,2.2062,2.2062,2.206,2.2008,2.2006,2.2005,2.2004,0,2.1788,2.1809,2.1813,2.1825,2.1829,2.184,2.1854,2.185,2.1902,2.1902,2.1903,2.1907,2.1916,2.1919,2.193,2.1946,2.1982,2.1989,2.1981,2.1966,2.1952,2.1958,2.2104,2.1991,2.1992,2.1993,2.1994,2.1995,2.1697,2.1686,2.1712,2.1715,2.1731,2.1743,2.1737,2.1764,2.1767,2.1778,2.1806,2.1802,2.1824,2.1844,2.1856,2.1853,2.1876,2.1864,2.1861,2.1857,2.1849,2.1954,2.1856,2.1856,2.1857,2.1857,2.1857,0,2.1582,2.1602,2.1605,2.1624,2.1627,2.1664,2.1681,2.1681,2.1677,2.1695,2.1701,2.1702,2.1705,2.1737,2.1744,2.1735,2.1752,2.1735,2.1735,2.1738,2.1829,2.1835,2.1721,2.1721,2.1721,2.1721,2.1721,2.1721,2.1523,2.1506,2.153,2.1522,2.1542,2.154,2.1547,2.1558,2.1573,2.1573,2.1576,2.1598,2.1621,2.163,2.1635,2.1644,2.1643,2.162,2.1635,2.1719,2.1732,2.1744,2.175,2.162,2.162,2.1544,2.1543,2.1543]}]]